View from above orbital plane
|
View from above satellite
|
Ground track
|
The orbit data is extracted from the following two-line orbital elements,
1 19650U 88102B 21023.00302092 -.00000299 00000-0 -12770-3 0 9996
2 19650 71.0008 128.2430 0015400 331.4376 28.5901 14.15799178662232
Epoch (UTC): | 23 January 2021 00:04:21 |
Eccentricity: | 0.0015400 |
inclination: | 71.0008° |
perigee height: | 828 km |
apogee height: | 851 km |
right ascension of ascending node: | 128.2430° |
argument of perigee: | 331.4376° |
revolutions per day: | 14.15799178 |
mean anomaly at epoch: | 28.5901° |
orbit number at epoch: | 66223 |
The dashed part of the orbit path shows where the satellite is in the earth's shadow,
|
|